Regional Weather Roundup
Issued by NWS

Home | Current Version | Previous Version | Text Only | Print | Product List | Glossary On
Versions: 1 2 3 4 5 6 7 8 9 10 11 12 13 14 15 16 17 18 19 20 21 22 23 24 25 26 27 28 29 30 31 32 33 34 35 36 37 38 39 40 41 42 43 44 45 46 47 48 49
000
ASUS45 KREV 020710
RWRNV
NEVADA REGIONAL WEATHER ROUNDUP
NATIONAL WEATHER SERVICE RENO NV
1200 AM PDT THU OCT 02 2014

NOTE: "FAIR" INDICATES FEW OR NO CLOUDS BELOW 12,000 FEET WITH NO
SIGNIFICANT WEATHER AND/OR OBSTRUCTIONS TO VISIBILITY.

NVZ001-003-004-020800-
WESTERN NEVADA

CITY           SKY/WX    TMP DP  RH WIND       PRES   REMARKS
RENO           CLEAR     49  27  42 W5        30.23S
CARSON CITY    FAIR      45  21  39 CALM      30.25R
MINDEN         FAIR      32  23  69 CALM      30.26
SLIDE MTN        N/A     45  12  26 E7          N/A
PYRAMID LAKE     N/A     55 N/A N/A SW8         N/A
FALLON         CLEAR     42  29  59 CALM      30.21R
LOVELOCK       CLEAR     42  27  55 S6        30.21S
HAWTHORNE      CLEAR     48  34  57 CALM      30.22S
$$

NVZ002-CAZ072-073-020800-
NORTHERN AND CENTRAL SIERRA

CITY           SKY/WX    TMP DP  RH WIND       PRES   REMARKS
S. LAKE TAHOE  CLEAR     34  27  75 CALM      30.26R
TRUCKEE        CLEAR     32  28  86 CALM      30.26S
SQUAW VLY 8000 NOT AVBL
SUSANVILLE     CLEAR     43  28  56 W6        30.22
BLUE CANYON    CLEAR     59   9  13 NE5       30.17R
MAMMOTH LAKES  FAIR      41  18  38 W6        30.29S
BRIDGEPORT     FAIR      34  23  64 CALM      30.28S
$$

NVZ030-031-036-020800-
NORTHERN NEVADA

CITY           SKY/WX    TMP DP  RH WIND       PRES   REMARKS
ELKO           CLEAR     36  26  67 CALM      30.25R
WINNEMUCCA     PTCLDY    36  30  79 SE7       30.24S
WENDOVER       CLEAR     45  36  70 W5        30.22S
$$

NVZ035-037-020800-
CENTRAL NEVADA

CITY           SKY/WX    TMP DP  RH WIND       PRES   REMARKS
ELY            CLEAR     30  24  78 S12       30.26S
EUREKA           N/A     34  22  61 S5        30.27S
$$

NVZ013-014-020800-
SOUTH CENTRAL NEVADA

CITY           SKY/WX    TMP DP  RH WIND       PRES   REMARKS
TONOPAH        CLEAR     49  19  30 N8        30.23R
$$

NVZ017-020-022-020800-
SOUTHERN NEVADA

CITY           SKY/WX    TMP DP  RH WIND       PRES   REMARKS
LAS VEGAS      CLEAR     69  27  20 E9        30.04R
N. LAS VEGAS   CLEAR     67  28  23 E12       30.06R
NELLIS AFB     CLEAR     67  32  27 E9        30.06R
HENDERSON      CLEAR     65  28  24 NE7       30.10R
MERCURY        CLEAR     61  14  16 NE16      30.10R
$$


USA.gov is the U.S. government's official web portal to all federal, state and local government web resources and services.